Home > Weather > Incheon > Past weeks

Flag for South Korea Weather for the Past 2 Weeks in Incheon, South Korea

Now
23 °F

Clear.


Feels Like: 10 °F
Forecast: 23 / 32 °F
Wind: 15 mph from North

Location: Incheon International Airport

Current Time: Feb 6, 2016 at 7:27:07 AM

Latest Report: Feb 6, 2016 at 6:30 AM


Visibility: 10 mi

Pressure: 30.18 "Hg

Humidity: 58%

Dew point: 10 °F

Location of IncheonLocation

Historic Weather in Incheon — Graph

°F

Incheon Temperature Yesterday

Maximum temperature yesterday: 34 °F (at 1:30 PM)
Minimum temperature yesterday: 19 °F (at 7:00 AM)
Average temperature yesterday: 29 °F

High & Low Weather Summary for the Past Weeks

 TemperatureHumidityPressure
High39 °F (Jan 29, 2:30 PM)93% (Jan 26, 5:00 AM)30.54 "Hg (Jan 26, 5:00 AM)
Low3 °F (Jan 24, 7:30 AM)19% (Feb 5, 1:00 PM)30.18 "Hg (Feb 5, 6:30 PM)
Average25 °F51%30.36 "Hg
* Reported Jan 22 6:00 AM — Feb 6 6:00 AM, Incheon, Weather by CustomWeather, © 2016

Note: Actual official high and low records may vary slightly from our data, if they occured in-between our weather recording intervals... More about our weather records

Advertising

Incheon Weather History for the Previous 24 Hours

 ConditionsComfort  
Time TempWeatherWind HumidityBarometerVisibility
6:00 AM
Sat, Feb 6
25 °FClear.13 mph54%30.18 "Hg10 mi
5:30 AM23 °FClear.13 mph58%30.18 "Hg10 mi
5:00 AM23 °FClear.7 mph58%30.18 "Hg10 mi
4:30 AM21 °FClear.9 mph63%30.18 "Hg10 mi
4:00 AM23 °FClear.9 mph54%30.18 "Hg10 mi
3:30 AM23 °FClear.7 mph50%30.18 "Hg10 mi
3:00 AM23 °FClear.8 mph50%30.18 "Hg10 mi
2:30 AM23 °FClear.9 mph50%30.21 "Hg10 mi
2:00 AM23 °FClear.9 mph54%30.21 "Hg10 mi
1:30 AM25 °FClear.10 mph46%30.21 "Hg10 mi
1:00 AM25 °FClear.10 mph42%30.21 "Hg10 mi
12:30 AM27 °FClear.10 mph54%30.21 "Hg10 mi
12:00 AM28 °FPassing clouds.12 mph69%30.21 "HgN/A
11:30 PM
Fri, Feb 5
30 °FPassing clouds.13 mph59%30.21 "HgN/A
11:00 PM30 °FPassing clouds.13 mph59%30.21 "HgN/A
10:30 PM32 °FPassing clouds.12 mph60%30.21 "HgN/A
10:00 PM32 °FPassing clouds.8 mph60%30.21 "HgN/A
9:30 PM32 °FPassing clouds.8 mph60%30.21 "HgN/A
9:00 PM32 °FPassing clouds.9 mph60%30.21 "HgN/A
8:30 PM32 °FClear.12 mph60%30.21 "Hg10 mi
8:00 PM32 °FClear.13 mph55%30.18 "Hg10 mi
7:30 PM32 °FClear.14 mph51%30.18 "Hg10 mi
7:00 PM32 °FSunny.12 mph51%30.18 "Hg10 mi
6:30 PM32 °FSunny.6 mph47%30.18 "Hg10 mi
6:00 PM32 °FSunny.6 mph40%30.21 "Hg10 mi
5:30 PM32 °FSunny.8 mph34%30.21 "Hg10 mi
5:00 PM34 °FSunny.12 mph25%30.21 "Hg10 mi
4:30 PM34 °FSunny.9 mph25%30.21 "Hg10 mi
4:00 PM34 °FSunny.10 mph25%30.21 "Hg10 mi
3:30 PM34 °FSunny.9 mph21%30.21 "Hg10 mi
3:00 PM34 °FPassing clouds.9 mph29%30.21 "HgN/A
2:30 PM34 °FPassing clouds.9 mph27%30.21 "HgN/A
2:00 PM34 °FSunny.9 mph21%30.21 "Hg10 mi
1:30 PM34 °FPassing clouds.7 mph23%30.24 "HgN/A
1:00 PM32 °FPassing clouds.7 mph19%30.24 "HgN/A
12:30 PM32 °FSunny.9 mph27%30.24 "Hg10 mi
11:30 AM30 °FSunny.9 mph47%30.27 "Hg10 mi
11:00 AM32 °FPassing clouds.8 mph44%30.27 "HgN/A
10:30 AM32 °FSunny.6 mph44%30.27 "Hg10 mi
10:00 AM32 °FPassing clouds.5 mph40%30.27 "HgN/A
9:30 AM30 °FSunny.1 mph43%30.27 "Hg10 mi
9:00 AM27 °FSunny.1 mph43%30.27 "Hg10 mi
8:00 AM21 °FClear.3 mph49%30.27 "Hg10 mi
7:30 AM19 °FPassing clouds.1 mph53%30.27 "HgN/A
7:00 AM19 °FPassing clouds.1 mph53%30.27 "HgN/A
Weather by CustomWeather, © 2016

See weather overviewHow to use our weather pages